Location: Beaurevoir
(49.9971°N, 3.3085°E)
Time: 03:56:44
(UTC+00:00)

Cosmos 1242 Rocket - Pass Details

Date: 23 May 2024
Orbit: 320 x 334 km, 81.1° (Epoch: 17 June)

Event Time Altitude Azimuth Distance (km) Brightness Sun altitude
Exits shadow 01:13:15 15° 126° (SE) 1,123 4.3 -16.6°
Maximum altitude 01:14:35 19° 92° (E) 958 4.3 -16.5°
Drops below altitude 10° 01:16:47 10° 44° (NE) 1,371 5.9 -16.4°
Sets 01:19:07 0° 26° (NNE) 2,230 7.8 -16.3°
